METEOR 2-11 DEB

Satellite information

Favourite Embed

Satellite Type and Status

DEBRISIN ORBIT

Key statistics

Satellite METEOR 2-11 DEB at a glance.

Uptime

14977

Days in orbit

Revolutions

≈ 14.0

Per day

Orbit

LEO

Low Earth Orbit

Inclination

82.5

Latest

Satellite identification and parameters

Extended collection of information and parameters for METEOR 2-11 DEB.

Object identification

Identified? True

Debris? True

Object name: METEOR 2-11 DEB

International designator: 1984-072R

Object number (NORAD): 42455

Object ID (CCSDS): 42455

Country: COMMONWEALTH OF INDEPENDENT STATES (CIS)

Current information (Y/N): Y

RCS size: SMALL

Orbital parameters

Period: 103.225 minutes

Inclination: 82.5243 deg

SMA: 7289.239 km

Apoapsis: 915.06 km

Periapsis: 907.148 km

RAAN: 301.0863 deg

Eccentricy: 0.0005427

Argument of periapsis: 235.2843 deg

Mean anomaly: 124.7812 deg

Mean motion: 13.95016916 rev/day

Mean motion (dot): 0.0000137 rev/day2

B* drag term: 0.001007 1/REarth

Two-line elements (TLE)

Creation date: July 2, 2025, 10:36 p.m.

Reference frame: TEME

Reference center: EARTH

Epoch: July 2, 2025, 2:08 p.m. UTC

TLE line 0: 0 METEOR 2-11 DEB

TLE line 1: 1 42455U 84072R 25183.58925411 .00001370 00000-0 10070-2 0 9996

TLE line 2: 2 42455 82.5243 301.0863 0005427 235.2843 124.7812 13.95016916511195

Live tracking on map

Real-time ground track for satellite METEOR 2-11 DEB.

In-orbit conjunctions

A list of the most updated potential collisions computed for object METEOR 2-11 DEB.

Target Orbit TCA Probability of collision Miss distance Type
GGSE 4 LEO 2025-05-05 18:54:35 0.0001551115 980.0 (m) PAYLOAD

Associated space launch

Second generation soviet meteorological satellite

METEOR 2-11 DEB was lifted into orbit during the mission ‘Tsiklon-3 | Meteor-2 11’, on board a Tsiklon-3 space rocket.

The launch took place on July 5, 1984, 3:35 a.m. from 32/2.

For more information about the launch, click the button.

Launch to space Tsiklon-3 | Meteor-2 11
Tsiklon-3 | Meteor-2 11

Agency: N/A

Status: Launch Successful

Launch date: July 5, 1984, 3:35 a.m. UTC

Rocket: Tsiklon-3

Launch pad: 32/2

Location: Plesetsk Cosmodrome, Russian Federation

...

Latest news about this satellite

There are no fresh news available about this satellite. Check back as we update our databases every day.


Newsletter sign-up

Weekly statistics, charts and insights to help you stay on top of the space industry.